Regional Weather Roundup
Issued by NWS Wakefield, VA

Home | Current Version | Previous Version | Graphics & Text | Print | Product List | Glossary On
Versions: 1 2 3 4 5 6 7 8 9 10 11 12 13 14 15 16 17 18 19 20 21 22 23 24 25 26 27
000
ASUS41 KAKQ 270415
RWRAKQ

REGIONAL WEATHER ROUNDUP
NATIONAL WEATHER SERVICE WAKEFIELD VA
1100 PM EST SUN FEB 26 2017

Note: "fair" indicates few or no clouds below 12,000 feet with no
significant weather and/or obstructions to visibility. * = Denotes
station may not report precipitation (e.g., rain,snow,etc.),
thunder or fog.

VAZ042-051-052>054-056-270500-
NORTHERN VIRGINIA

CITY           SKY/WX    TMP DP  RH WIND       PRES   REMARKS
WASH NATIONAL  FAIR      42  22  44 S3        30.31R
DULLES         FAIR      29  20  69 CALM      30.29R
FORT BELVOIR   FAIR      31  22  71 CALM      30.31R
QUANTICO       FAIR      35  30  82 NW6       30.32R
FREDERICKSBRG* FAIR      34  26  73 CALM      30.30R
STAFFORD*      FAIR      28  23  82 CALM      30.35R
WARRENTON      FAIR      27  20  75 CALM      30.29R
CULPEPER*      FAIR      30  23  75 CALM      30.30S
MANASSAS*      FAIR      28  24  85 CALM      30.30R
LEESBURG*      FAIR      32  27  80 MISG      30.30R
WINCHESTER     FAIR      28  16  59 CALM      30.27R
FRONT ROYAL*   NOT AVBL
LURAY*         FAIR      32  21  64 S3        30.28R
$$

VAZ048-049-060>072-079>083-270500-
CENTRAL AND SOUTH CENTRAL VIRGINIA

CITY           SKY/WX    TMP DP  RH WIND       PRES   REMARKS
RICHMOND       FAIR      38  27  64 CALM      30.29S
CHESTERFIELD*  FAIR      34  12  40 CALM      30.30S
PETERSBURG*    FAIR      28  26  91 CALM      30.31R
HANOVER        FAIR      32  23  69 CALM      30.31R
TAPPAHANNOCK*  FAIR      37  15  41 CALM      30.31R
QUINTON*       FAIR      38  31  76 SE3       30.30R
CHARLOTTSVILLE FAIR      39  15  37 W5        30.28R
GORDONSVILLE*  NOT AVBL
ORANGE*        FAIR      30  23  74 CALM      30.31R
LOUISA*        FAIR      30  21  69 CALM      30.28R
BUMPASS*       FAIR      30  22  72 CALM      30.29R
FARMVILLE*     FAIR      41  18  40 CALM      30.28S
CREWE*         FAIR      31  28  89 CALM      30.28F
FORT PICKETT*  NOT AVBL
CHASE CITY*    FAIR      34  26  72 CALM      30.30R
CLARKSVILLE*   FAIR      32  27  80 CALM      30.29S
SOUTH HILL*    FAIR      30  27  88 CALM      30.36R
LAWRENCEVILLE* FAIR      34  26  73 CALM      30.30R
EMPORIA*       FAIR      30  27  86 CALM      30.32S
$$

VAZ088>098-270500-
SOUTHEAST VIRGINIA

CITY           SKY/WX    TMP DP  RH WIND       PRES   REMARKS
NORFOLK        FAIR      42  33  70 SE7       30.32S
VIRGINIA BEACH FAIR      40  31  70 SE6       30.32S
NORFOLK NAVAL  FAIR      41  32  70 SE7       30.33S
WEST POINT*    FAIR      36  29  77 E3        30.32F
SALUDA*        FAIR      38  32  78 CALM      30.31S
NEWPORT NEWS   FAIR      35  31  85 CALM      30.32S
LANGLEY AFB    FAIR      43  34  71 S7        30.31S
FORT EUSTIS    FAIR      40  34  76 SE5       30.28F
WILLIAMSBURG*  FAIR      45  37  76 S5        30.32S
HR EXEC AP*    NOT AVBL
FRANKLIN*      FAIR      33  29  86 CALM      30.32S
US460-WAKEFLD  FAIR      31  28  89 CALM      30.31S
$$

VAZ020-022-025-037-045-270500-
WEST CENTRAL AND SOUTHWEST VIRGINIA

CITY           SKY/WX    TMP DP  RH WIND       PRES   REMARKS
STAUNTON*      FAIR      26  17  68 CALM      30.29R
WAYNESBORO*    FAIR      32  11  41 SW5       30.27R
HOT SPRINGS VA FAIR      32   3  29 CALM      30.21R
LYNCHBURG      FAIR      32  17  54 CALM      30.29S
DANVILLE       FAIR      32  25  75 CALM      30.30R
SOUTH BOSTON*  NOT AVBL
MARTINSVILLE   FAIR      28  20  72 CALM      30.32R
ROANOKE        FAIR      35  16  45 NE5       30.29S
BLACKSBURG     FAIR      29  17  59 CALM      30.28S
DUBLIN*        FAIR      31  19  61 CALM      30.27R
MARION*        FAIR      28  21  73 CALM      30.26S
HILLSVILLE*    FAIR      35  15  44 CALM      30.23S
RICHLANDS*     FAIR      38  10  31 CALM      30.21S
WISE*          FAIR      37  14  38 S3        30.22S
ABINGDON*      FAIR      34  20  56 CALM      30.23S
$$

MDZ021>025-VAZ099-100-270500-
SOUTHERN MARYLAND AND THE DELMARVA PENINSULA

CITY           SKY/WX    TMP DP  RH WIND       PRES   REMARKS
PATUXENT RIVER FAIR      36  32  85 S3        30.32R
BAY BRIDGE APT FAIR      34  25  69 CALM      30.31R
LEONARDTOWN    FAIR      36  28  75 CALM      30.33R
DOVER          FAIR      35  27  72 SW5       30.29R
GEORGETOWN     FAIR      30  23  75 CALM      30.32R
EASTON         FAIR      35  23  63 CALM      30.35R
CAMBRIDGE      CLEAR     30  27  86 CALM      30.32R
SALISBURY      FAIR      28  24  85 CALM      30.32R
OCEAN CITY     FAIR      30  24  78 CALM      30.33R
WALLOPS ISLAND FAIR      33  27  78 SW5       30.33R
ACCOMACK*      FAIR      32  28  84 SE5       30.32F
$$

NCZ012>017-030>032-270500-
NORTH CENTRAL AND EASTERN NORTH CAROLINA

CITY           SKY/WX    TMP DP  RH WIND       PRES   REMARKS
ROANOKE RAPIDS FAIR      32  30  93 SW5       30.32R
RALEIGH        FAIR      40  24  53 CALM      30.30S
ELIZABETH CITY FAIR      43  38  82 SE3       30.33S
AHOSKIE*         N/A     32  28  84 CALM      30.32S
EDENTON*       FAIR      39  32  75 CALM      30.33S
CURRITUCK*     FAIR      40  36  86 CALM      30.34R
KILL DEVIL HLS NOT AVBL
MANTEO         FAIR      43  37  79 NE3       30.33S
CAPE HATTERAS  FAIR      42  35  76 NE5       30.33R
TARBORO*       NOT AVBL
GOLDSBORO      FAIR      38  27  63 CALM      30.31R
WASHINGTON     FAIR      38  31  77 CALM      30.32S
GREENVILLE     FAIR      37  32  81 CALM      30.33R
NEW BERN       FAIR      38  31  76 CALM      30.33S
WILMINGTON     FAIR      41  36  82 CALM      30.33R
$$

VAZ048-270500-
ELSEWHERE

CITY           SKY/WX    TMP DP  RH WIND       PRES   REMARKS
HARRISBURG PA  FAIR      30  22  72 CALM      30.26S
BALTIMORE      FAIR      28  22  78 SW3       30.29R
ANNAPOLIS      FAIR      36  31  82 CALM      30.30R
ANDREWS AFB    FAIR      33  23  66 CALM      30.29R
PHILADELPHIA   FAIR      37  17  44 W7        30.30R
HENDERSON NC   FAIR      36  21  53 S3        30.30R
GREENSBORO     FAIR      37  25  61 CALM      30.29R
ROCKY MOUNT    FAIR      35  29  78 CALM      30.31R
$$

VAZ100-270500-
MARINE

STATION/POSITION TIME  TEMP    WIND        PRES    WAVE   SWELL
                       AIR SEA DIR/SP/G            HT/PER HT/PER
                 (UTC) (F)     (DEG/KT/KT) (MB)    (FT/S) (FT/S)
CAPE MAY NJ      0348   41 45  300/  5/  8 1026.0R
LEWES DE         0342   36 45  220/  5/  7 1026.5R
OCEAN-CITY-INLET 0342   38 44  270/  2/  2 1027.2R
WACHAPREAGUE VA  0348   44 52  190/  8/ 10 1027.0R
THOMAS POINT MD  0400   42 44  250/  2/  2   N/A
GOOSES REEF MD   0400   44 45  170/  8/  8 1027.1
COVE POINT MD    0348   42     130/  6/  7 1027.2R
SOLOMONS ISLAND  0342   41 45   CALM  /  2   N/A
BISHOPS HEAD MD  0348   45 48  170/  8/  9 1026.8R
PINEY POINT MD   0348          170/  8/  8   N/A
POTOMAC MD       0400   44 45  180/  8/ 10 1025.8
CAMBRIDGE MD     0348   37 47  180/  4/  6 1026.0R
LEWISETTA VA     0348   41 49  140/  3/  4 1026.2R
RAPPAHANNOCK LGT 0348          140/ 10/ 11 1027.2R
YORK RVR RNG VA  0348   46     180/ 14/ 16 1025.7S
YORKTOWN VA      0348   43 50  170/  7/  9 1026.0F
JAMESTOWN VA     0400   44 54  140/  8/ 12   N/A     0
DOMINION TERM VA 0348   44     140/ 11/ 12 1026.5F
KIPTOPEKE VA     0348      50  160/ 12/ 14   N/A
CHES BAY BRIDGE  0348   44 48  160/ 11/ 14 1026.7S
CAPE HENRY VA    0348   43     150/  7/ 10   N/A
WILLOUBY STN VA  0348   43     150/ 12/ 13 1027.4S
S CRANEY ISL VA  0348   45     150/ 10/ 12 1026.5S
CAPE HENRY BUOY  0342      48                N/A     2/11   2/11
OFFSHORE WE BUOY 0351      48                N/A     3/10   2/11
64NM E OF VA BCH 0350   45 51   40/  6/  8 1027.2F   4/10   3/10
DUCK PIER NC     0348   46 49   90/  6/  7 1026.5R
44100 DUCK FRF   0335      49                N/A     3/ 9   2/11
44056 DUCK FRF   0330      49                N/A     3/11   2/11
OREGON INLET NC  0336   47 57   60/  4/  5 1026.9R
HATTERAS NC      0348   54 61   10/  4/  5 1026.5R
DIAMOND SHLS NC  0350   56 72  320/  8/ 14 1026.9R   4/ 9   3/ 9
CAPE LOOKOUT NC  0400   55     350/  8/  9 1026.5R
$$




USA.gov is the U.S. government's official web portal to all federal, state and local government web resources and services.